Regional Weather Roundup
Issued by NWS

Home | Current Version | Previous Version | Text Only | Print | Product List | Glossary On
Versions: 1 2 3 4 5 6 7 8 9 10 11 12 13 14 15 16 17 18 19 20 21 22 23 24 25 26 27 28 29 30 31 32 33 34 35 36 37 38 39 40 41 42 43 44 45 46 47 48 49 50
000
ASUS43 KLOT 031722
RWRIL

ILLINOIS REGIONAL WEATHER ROUNDUP
NATIONAL WEATHER SERVICE CHICAGO/ROMEOVILLE IL
1200 PM CDT THU SEP 03 2015

NOTE: "FAIR" INDICATES FEW OR NO CLOUDS BELOW 12,000 FEET WITH NO
SIGNIFICANT WEATHER AND/OR OBSTRUCTIONS TO VISIBILITY.

* THESE STATIONS ARE NOT UNDER NWS QUALITY CONTROL. THEY ALSO MAY NOT
  REPORT WEATHER SUCH AS PRECIPITATION OR FOG.

ILZ001-002-007-009-015-016-024-031800-
NORTHWEST ILLINOIS

CITY           SKY/WX    TMP DP  RH WIND       PRES   REMARKS
MOLINE         SUNNY     88  70  55 W12       29.94F HX  93
STERLING*      SUNNY     90  73  58 W13       29.93F HX  98
SAVANNA*       SUNNY     86  70  59 SW8       29.94S HX  91
$$

ILZ003-004-008-010-011-017-018-031800-
NORTH CENTRAL ILLINOIS

CITY           SKY/WX    TMP DP  RH WIND       PRES   REMARKS
ROCKFORD       MOSUNNY   86  71  60 W9        29.96S HX  91
FREEPORT*      SUNNY     83  72  69 W8        29.97S HX  89
ROCHELLE*      SUNNY     84  72  67 W10       29.96S HX  90
DE KALB*       PTSUNNY   86  73  65 SW9       29.97S HX  93
PERU*          SUNNY     86  68  54 W12       29.97S HX  89
$$

ILZ005-006-012>014-019>023-031800-
NORTHEAST ILLINOIS

CITY           SKY/WX    TMP DP  RH WIND       PRES   REMARKS
CHICAGO-OHARE  PTSUNNY   87  70  56 W10       29.94F HX  92
CHICAGO-MIDWAY MOSUNNY   89  68  49 W9        29.94F HX  93
AURORA         SUNNY     87  72  60 W8        29.96F HX  93
LANSING*       MOSUNNY   86  68  55 SW10      29.96F HX  89
JOLIET*        SUNNY     89  73  58 W7        29.96S HX  96
WAUKEGAN         N/A    N/A N/A N/A MISG      29.93S
DUPAGE AIRPORT MOSUNNY   86  72  62 SW9       29.95S HX  92
KANKAKEE*      SUNNY     89  73  58 SW9       29.97F HX  96
WHEELING       PTSUNNY   87  70  56 SW9       29.95S HX  92
MORRIS*        SUNNY     87  72  61 W9        29.96S HX  93
ROMEOVILLE*    MOSUNNY   86  69  57 W9        29.96S HX  90
NORTHERLY ISL    N/A     87  65  47 W7          N/A  HX  89
$$

LMZ740>746-031800-
SOUTHERN LAKE MICHIGAN

STATION/POSITION SKY/WX   TEMP    WIND        PRES    VSBY  WAVE
                          AIR SEA DIR/SP/G                  HT/PER
                          (F)     (DEG/KT/KT) (MB)    (MI)  (FT/S)
SOUTHERN BUOY              73 71  210/  6/  6 1013.0F         1/ 3
WILMETTE HARBOR            78 60   10/  2/  2   N/A           0
HARRISON CRIB              83     250/ 12/ 17   N/A
BURNHAM HARBOR             86     260/  4/ 12   N/A
CALUMET HARBOR             84     200/  6/ 11   N/A
BURNS HARBOR               82     250/  7/  9 1014.9S
MICHIGAN CITY              81     220/  6/  7   N/A
MICHIGAN CITY 6N           78 74  230/  4/  4   N/A           1
ST. JOSEPH                 76 73  260/  6/  8   N/A           1/ 3
$$

ILZ025>027-034>036-040-047-049-050-058-095>099-031800-
WEST-CENTRAL ILLINOIS

CITY           SKY/WX    TMP DP  RH WIND       PRES   REMARKS
QUINCY         SUNNY     88  68  51 W8        29.99F HX  91
GALESBURG*     SUNNY     87  70  55 SW10      29.97F HX  92
MACOMB*        SUNNY     89  67  48 SW10      30.00F HX  92
JACKSONVILLE*  SUNNY     92  70  48 W9        29.98F HX  97
PITTSFIELD*    SUNNY     89  68  49 SW9       30.00F HX  92
$$

ILZ028>032-037-038-041>044-048-051>054-059>061-031800-
CENTRAL ILLINOIS

CITY           SKY/WX    TMP DP  RH WIND       PRES   REMARKS
PONTIAC        SUNNY     88  73  60 SW10      29.99S HX  96
BLOOMINGTON    MOSUNNY   89  71  55 SW13      30.00F HX  95
DECATUR        SUNNY     89  66  46 W9        30.00F HX  91
PEORIA         SUNNY     91  68  46 W12       29.98F HX  95
LACON*         SUNNY     86  70  59 W5        29.96F HX  91
LINCOLN*       SUNNY     91  67  43 W6        29.97F HX  94
SPRINGFIELD    SUNNY     91  68  46 SW9       29.99F HX  95
TAYLORVILLE    MOSUNNY   90  68  48 SW7       30.00S HX  93
$$

ILZ033-039-045-046-055>057-062-063-031800-
EAST-CENTRAL ILLINOIS

CITY           SKY/WX    TMP DP  RH WIND       PRES   REMARKS
CHAMPAIGN      MOSUNNY   89  67  47 SW10      30.00F HX  92
MATTOON        MOSUNNY   87  65  47 W10       30.01F HX  89
PARIS*         MOSUNNY   88  69  53 W9        30.01F HX  91
$$

ILZ079-100>102-031800-
SOUTHWEST ILLINOIS

CITY           SKY/WX    TMP DP  RH WIND       PRES   REMARKS
ALTON          SUNNY     86  70  58 SW6       30.00F HX  90
BELLEVILLE     SUNNY     89  71  56 VRB3      29.99F HX  95
CAHOKIA*       SUNNY     89  69  51 VRB7      30.00F HX  93
SPARTA*        SUNNY     87  68  52 SW7       30.03F HX  90
$$

ILZ064>066-069>071-074>076-080>082-084>086-088>090-092>094-031800-
SOUTH-CENTRAL ILLINOIS

CITY           SKY/WX    TMP DP  RH WIND       PRES   REMARKS
CARBONDALE     SUNNY     87  70  56 SW6       30.02F HX  92
CAIRO*         SUNNY     87  73  64 CALM      30.02F HX  94
EFFINGHAM*     MOSUNNY   88  64  44 SW8       30.02F HX  89
MARION         MOSUNNY   88  70  55 S7        30.03F HX  92
MT. VERNON     PTSUNNY   88  70  55 SW7       30.02F HX  92
CENTRALIA*     MOSUNNY   90  72  55 SW8       30.01F HX  96
SALEM*         SUNNY     90  69  51 S7        30.01F HX  94
METROPOLIS*    SUNNY     88  71  57 W3        30.02F HX  94
$$

ILZ067-068-072-073-078-083-087-091-031800-
SOUTHEAST ILLINOIS

CITY           SKY/WX    TMP DP  RH WIND       PRES   REMARKS
LAWRENCEVILLE  MOSUNNY   88  68  51 W8        30.01F HX  91
FLORA*         MOSUNNY   90  67  46 W6        30.01F HX  92
FAIRFIELD*     MOSUNNY   88  70  55 W6        30.00F HX  93
HARRISBURG*    MOSUNNY   89  68  50 CALM      30.02F HX  92
ROBINSON*      SUNNY     89  67  49 W5        30.01F HX  92
CARMI*         SUNNY     87  70  56 W7        30.01F HX  92
$$

ABBREVIATIONS USED IN REMARKS
   TC - TEMPERATURE IN CELSIUS
  WCI - WIND CHILL INDEX
   HX - HEAT INDEX
  VSB - VISIBILITY
$$



USA.gov is the U.S. government's official web portal to all federal, state and local government web resources and services.